Home   Weather   Włocławek   Past weeks

Flag for Poland Past Weather in Włocławek, Poland — Yesterday and Last 2 Weeks

Now
47 °F

Cool.


Feels Like: 44 °F
Forecast: 41 / 49 °F
Wind: 5 mph from South

Location: Plock

Current Time: Apr 25, 2017 at 9:15:16 am

Latest Report: Apr 25, 2017 at 8:00 am


Visibility: N/A

Pressure: 29.67 "Hg

Humidity: 66%

Dew Point: 36 °F

Location of WłocławekLocation

Past Weather in Włocławek — Graph

°F

Włocławek Temperature Yesterday

Maximum temperature yesterday: 49 °F (at 4:00 pm)
Minimum temperature yesterday: 34 °F (at 2:00 am)
Average temperature yesterday: 42 °F

High & Low Weather Summary for the Past Weeks

 TemperatureHumidityPressure
High70 °F (Apr 10, 4:00 pm)97% (Apr 10, 7:00 am)30.50 "Hg (Apr 10, 7:00 am)
Low29 °F (Apr 17, 5:00 am)32% (Apr 23, 12:00 pm)29.58 "Hg (Apr 13, 5:00 am)
Average42 °F71%29.98 "Hg
* Reported Apr 10 7:00 am — Apr 25 7:00 am, Włocławek, Weather by CustomWeather, © 2017

Note: Actual official high and low records may vary slightly from our data, if they occured in-between our weather recording intervals... More about our weather records

Advertising

Włocławek Weather History for the Previous 24 Hours

Scroll right to see more
 ConditionsComfort  
Time TempWeatherWind HumidityBarometerVisibility
7:00 am
Tue, Apr 25
45 °FCool.3 mph65%29.68 "HgN/A
6:00 am44 °FQuite cool.3 mph66%29.70 "HgN/A
5:00 am44 °FQuite cool.3 mph67%29.72 "HgN/A
4:00 am44 °FQuite cool.3 mph67%29.73 "HgN/A
3:00 am44 °FQuite cool.3 mph67%29.75 "HgN/A
2:00 am44 °FQuite cool.3 mph66%29.78 "HgN/A
1:00 am45 °FQuite cool.3 mph63%29.80 "HgN/A
12:00 am45 °FCool.3 mph60%29.82 "HgN/A
11:00 pm
Mon, Apr 24
44 °FQuite cool.2 mph65%29.83 "HgN/A
10:00 pm45 °FQuite cool.3 mph63%29.86 "HgN/A
9:00 pm45 °FQuite cool.2 mph61%29.88 "HgN/A
8:00 pm46 °FCool.2 mph57%29.89 "HgN/A
7:00 pm47 °FCool.3 mph51%29.90 "HgN/A
6:00 pm48 °FCool.6 mph50%29.91 "HgN/A
5:00 pm48 °FCool.8 mph53%29.93 "Hg28 mi
4:00 pm49 °FCool.7 mph52%29.94 "HgN/A
3:00 pm48 °FCool.6 mph49%29.96 "HgN/A
2:00 pm46 °FCool.6 mph57%29.99 "HgN/A
1:00 pm45 °FCool.5 mph56%30.01 "HgN/A
12:00 pm46 °FCool.5 mph59%30.02 "HgN/A
11:00 am43 °FQuite cool.6 mph60%30.03 "HgN/A
10:00 am43 °FQuite cool.5 mph60%30.03 "HgN/A
9:00 am41 °FQuite cool.7 mph68%30.03 "HgN/A
Weather by CustomWeather, © 2017

See weather overviewHow to use our weather pages